GW3161 Weather Reports


time (UTC)temp
F
wind
direction
speed
knots
gust
knots
rain 1hr
in
rain 24hr
in
rain mn
in
humidity
%
barometer
mb
20260506113051 43 148 2.6 3.5 0.00 0.02 0.00 66 1017.0
20260506111556 43 148 2.6 5.2 0.00 0.02 0.00 66 1017.1
20260506110058 43 148 2.6 6.1 0.00 0.02 0.00 66 1017.1
20260506104554 43 148 0.9 2.6 0.00 0.03 0.00 66 1017.1
20260506103054 43 148 1.7 4.3 0.00 0.03 0.00 65 1017.1
20260506101548 43 148 3.5 6.1 0.00 0.03 0.00 64 1017.1
20260506100055 43 148 0.9 5.2 0.00 0.03 0.00 63 1017.2
20260506094553 43 199 2.6 4.3 0.00 0.09 0.00 63 1017.1
20260506093109 43 0 0.9 3.5 0.00 0.09 0.00 62 1017.3
20260506091556 44 199 3.5 6.1 0.00 0.09 0.00 62 1017.1
20260506090126 43 157 1.7 4.3 0.00 0.09 0.00 62 1017.1
20260506084557 44 210 4.3 7.0 0.00 0.18 0.00 62 1017.1
20260506083057 44 212 7.8 12.2 0.00 0.18 0.00 61 1017.1
20260506081556 44 195 9.6 11.3 0.00 0.18 0.00 60 1017.1
20260506073102 43 271 4.3 5.2 0.00 0.18 0.00 69 1017.6
20260506071551 43 271 3.5 6.1 0.00 0.18 0.00 69 1017.8
20260506061600 44 287 3.5 10.4 0.00 0.18 0.18 67 1017.6
20260506044605 46 271 7.0 13.9 0.00 0.18 0.18 64 1017.1
20260506043052 46 302 8.7 16.5 0.00 0.18 0.18 61 1016.7
20260506041606 47 244 12.2 19.1 0.00 0.18 0.18 57 1016.5
20260506034601 47 274 11.3 20.9 0.00 0.18 0.18 52 1016.4
20260506033057 48 244 11.3 19.1 0.00 0.18 0.18 49 1016.1
20260506031556 48 288 11.3 18.2 0.00 0.18 0.18 49 1016.1
20260506030052 49 240 10.4 17.4 0.00 0.18 0.18 47 1016.1
20260506024552 49 224 12.2 18.2 0.00 0.18 0.18 48 1016.3
20260506023056 50 267 10.4 18.2 0.00 0.18 0.18 47 1016.3
20260506021552 50 224 12.2 17.4 0.00 0.18 0.18 47 1015.8
20260506020118 51 253 10.4 17.4 0.00 0.18 0.18 44 1015.5
20260506014557 52 251 8.7 18.2 0.00 0.18 0.18 44 1015.5
20260506013056 53 228 7.0 15.6 0.00 0.18 0.18 43 1015.4
20260506011553 53 263 10.4 18.2 0.00 0.18 0.18 43 1015.5
20260506010057 55 230 9.6 18.2 0.00 0.18 0.18 44 1015.3
20260506004557 56 257 6.1 22.6 0.00 0.18 0.18 45 1015.3
20260506003054 55 284 9.6 23.5 0.00 0.18 0.18 45 1015.2
20260506001606 55 233 13.9 25.2 0.00 0.18 0.18 47 1015.3
20260506000123 55 203 13.9 30.4 0.00 0.18 0.18 45 1014.9
20260505234607 55 214 13.9 29.5 0.00 0.18 0.18 45 1015.0
20260505233054 55 233 13.0 28.7 0.00 0.18 0.18 44 1015.1
20260505231556 55 190 8.7 21.7 0.00 0.18 0.18 44 1015.1
20260505230054 55 160 19.1 32.2 0.00 0.18 0.18 42 1014.8
20260505224553 56 223 13.0 33.9 0.00 0.18 0.18 41 1014.9
20260505223051 55 231 17.4 33.0 0.00 0.18 0.18 42 1015.0
20260505221556 55 223 21.7 28.7 0.00 0.18 0.18 45 1015.6
20260505220104 57 235 7.0 26.1 0.00 0.18 0.18 46 1015.4
20260505214601 56 207 7.0 26.9 0.00 0.18 0.18 49 1015.5
20260505213050 56 221 7.8 21.7 0.00 0.18 0.18 49 1015.7
20260505211623 58 181 5.2 23.5 0.00 0.18 0.18 53 1015.9
20260505210051 56 187 9.6 24.3 0.00 0.18 0.18 50 1016.1
20260505204605 54 157 15.6 28.7 0.00 0.18 0.18 52 1016.1
20260505203048 55 201 8.7 25.2 0.00 0.18 0.18 57 1016.2
20260505201550 54 180 13.0 31.3 0.00 0.18 0.18 61 1016.2
20260505200049 55 162 13.0 25.2 0.00 0.18 0.18 57 1016.3
20260505194548 55 185 6.1 24.3 0.00 0.18 0.18 63 1016.1
20260505193052 54 223 20.9 33.9 0.00 0.18 0.18 63 1016.2
20260505191552 53 214 8.7 20.9 0.00 0.18 0.18 68 1016.2
20260505190055 53 144 7.0 16.5 0.00 0.18 0.18 71 1016.5
20260505184548 53 159 7.0 15.6 0.00 0.18 0.18 72 1016.7
20260505183051 55 112 5.2 15.6 0.00 0.18 0.18 69 1016.7
20260505181627 54 184 6.1 15.6 0.00 0.18 0.18 71 1016.8
20260505180106 53 175 7.8 15.6 0.00 0.18 0.18 73 1016.9
20260505174552 50 175 10.4 23.5 0.00 0.18 0.18 76 1016.7
20260505173050 51 150 7.8 18.2 0.00 0.18 0.18 79 1016.7
20260505171559 50 146 9.6 17.4 0.00 0.18 0.18 79 1016.8
20260505170055 49 169 8.7 20.0 0.00 0.18 0.18 80 1016.6
20260505164553 49 186 10.4 25.2 0.00 0.18 0.18 80 1016.5
20260505163053 50 123 10.4 23.5 0.00 0.18 0.18 80 1016.3
20260505161553 49 189 4.3 25.2 0.00 0.18 0.18 81 1016.5
20260505153057 48 187 15.6 32.2 0.00 0.18 0.18 78 1016.1
20260505151551 48 169 9.6 33.0 0.00 0.18 0.18 78 1015.8
20260505124551 47 158 8.7 15.6 0.02 0.18 0.18 89 1014.8
20260505123057 47 180 17.4 27.8 0.02 0.18 0.18 88 1014.6
20260505121553 47 169 12.2 22.6 0.02 0.18 0.18 89 1014.9
20260505120110 47 176 8.7 20.0 0.01 0.17 0.17 90 1015.1
20260505114556 46 175 7.8 11.3 0.00 0.16 0.16 90 1014.8